Flag for U.S.A. Weather past 2 weeks in Palm Springs, California, U.S.A.

Now
91 °F

Clear.


Feels Like: 90 °F
Forecast: 78 / 102 °F
Wind: 14 mph from Northwest

Location: Palm Springs Regional Airport

Current Time: Jul 6, 2015 at 10:24:59 PM

Latest Report: Jul 6, 2015 at 9:53 PM


Visibility: 10 mi

Pressure: 29.80 "Hg

Humidity: 33%

Dew point: 58 °F

Location of Palm SpringsLocation

Historic Weather in Palm Springs — Graph

°F

Palm Springs temperature yesterday

Maximum temperature yesterday: 106 °F (at 2:53 PM)
Minimum temperature yesterday: 82 °F (at 5:53 AM)
Average temperature yesterday: 93 °F

Past Weeks' High & Low Weather Summary

 TemperatureHumidityPressure
High112 °F (Jun 22, 4:53 PM)67% (Jun 27, 6:53 AM)29.96 "Hg (Jun 27, 6:53 AM)
Low78 °F (Jun 23, 5:53 AM)5% (Jun 23, 4:53 PM)29.65 "Hg (Jul 4, 5:53 PM)
Average95 °F27%29.80 "Hg
* Reported Jun 21 8:53 PM — Jul 6 8:53 PM, Palm Springs, Weather by CustomWeather, © 2015

Note: Actual official high and low records may vary slightly from our data, if they occured in-between our weather recording intervals... More about our weather records

Advertising

Palm Springs weather history for previous 24 hours

 ConditionsComfort  
Time TempWeatherWind HumidityBarometerVisibility
8:53 PM
Mon, Jul 6
94 °FPassing clouds.17 mph30%29.78 "Hg10 mi
7:53 PM98 °FScattered clouds.14 mph26%29.77 "Hg10 mi
6:53 PM102 °FScattered clouds.16 mph23%29.77 "Hg10 mi
5:53 PM104 °FSunny.13 mph20%29.78 "Hg10 mi
4:53 PM104 °FScattered clouds.8 mph21%29.79 "Hg10 mi
3:53 PM102 °FSunny.14 mph23%29.81 "Hg10 mi
2:53 PM105 °FPartly sunny.10 mph18%29.84 "Hg10 mi
1:53 PM103 °FScattered clouds.6 mph19%29.86 "Hg10 mi
12:53 PM101 °FScattered clouds.6 mph19%29.89 "Hg10 mi
11:53 AM99 °FSunny.5 mph21%29.91 "Hg10 mi
10:53 AM96 °FPassing clouds.3 mph23%29.93 "Hg10 mi
9:53 AM93 °FSunny.7 mph28%29.94 "Hg10 mi
8:53 AM88 °FSunny.7 mph34%29.94 "Hg10 mi
7:53 AM83 °FSunny.7 mph43%29.93 "Hg10 mi
6:53 AM79 °FSunny.9 mph48%29.93 "Hg10 mi
5:53 AM79 °FClear.6 mph48%29.92 "Hg10 mi
4:53 AM78 °FClear.No wind54%29.89 "Hg10 mi
3:53 AM81 °FClear.5 mph45%29.88 "Hg10 mi
2:53 AM81 °FClear.12 mph45%29.87 "Hg10 mi
1:53 AM82 °FClear.3 mph46%29.87 "Hg10 mi
12:53 AM84 °FClear.10 mph41%29.87 "Hg10 mi
11:53 PM
Sun, Jul 5
86 °FClear.9 mph39%29.87 "Hg10 mi
10:53 PM89 °FClear.12 mph35%29.85 "Hg10 mi
Weather by CustomWeather, © 2015

See weather overviewHow to use our weather pages